This is the latest recevied weather packets stored in our database for station/object AB4KY. If no packets are shown the sender has not sent any weather packets the latest 10 day(s).
| Time | Temp. | Humidity | Pressure | Rain* | Wind** | Luminosity | Snow |
|---|---|---|---|---|---|---|---|
| 1778052214 | 9.44° C | 99% | 1005.3 hPa | 0 mm | - | 0 W/m² | - |
| 1778051912 | 9.44° C | 99% | 1005.3 hPa | 0 mm | - | 0 W/m² | - |
| 1778051609 | 10° C | 99% | 1005.2 hPa | 0 mm | - | 0 W/m² | - |
| 1778051301 | 10° C | 99% | 1005.4 hPa | 0 mm | - | 0 W/m² | - |
| 1778050997 | 10° C | 99% | 1005.1 hPa | 0.51 mm | - | 0 W/m² | - |
| 1778050695 | 10° C | 99% | 1005.3 hPa | 1.78 mm | - | 0 W/m² | - |
| 1778050392 | 10° C | 99% | 1005.2 hPa | 2.29 mm | - | 0 W/m² | - |
| 1778050089 | 10° C | 99% | 1005.1 hPa | 1.78 mm | - | 0 W/m² | - |
| 1778049784 | 10° C | 99% | 1005 hPa | 2.29 mm | - | 0 W/m² | - |
| 1778049482 | 10° C | 99% | 1005.2 hPa | 3.05 mm | - | 0 W/m² | - |
| 1778049179 | 10° C | 99% | 1005.2 hPa | 2.29 mm | - | 0 W/m² | - |
| 1778048878 | 10° C | 99% | 1005.1 hPa | 3.05 mm | - | 0 W/m² | - |
| 1778048575 | 10.56° C | 99% | 1005 hPa | 6.6 mm | - | 0 W/m² | - |
| 1778048270 | 10.56° C | 99% | 1005.1 hPa | 6.6 mm | - | 0 W/m² | - |
| 1778047968 | 10.56° C | 99% | 1004.9 hPa | 4.32 mm | - | 0 W/m² | - |
| 1778047666 | 10.56° C | 99% | 1004.8 hPa | 2.29 mm | - | 0 W/m² | - |
| 1778047363 | 10.56° C | 99% | 1004.6 hPa | 0 mm | - | 0 W/m² | - |
| 1778047060 | 10.56° C | 99% | 1004.6 hPa | 0.51 mm | - | 0 W/m² | - |
| 1778046756 | 10.56° C | 99% | 1004.6 hPa | 0.51 mm | - | 0 W/m² | - |
| 1778046454 | 10.56° C | 99% | 1004.6 hPa | 0.51 mm | - | 0 W/m² | - |
| 1778046150 | 10.56° C | 99% | 1004.7 hPa | 1.27 mm | - | 0 W/m² | - |
| 1778045847 | 10.56° C | 99% | 1004.7 hPa | 4.32 mm | - | 0 W/m² | - |
| 1778045546 | 10.56° C | 99% | 1004.7 hPa | 6.1 mm | - | 0 W/m² | - |
| 1778045243 | 11.11° C | 99% | 1005 hPa | 1.78 mm | - | 0 W/m² | - |
| 1778044942 | 11.11° C | 99% | 1005 hPa | 0.51 mm | - | 0 W/m² | - |
* Rain latest hour (hover to see other rain measurements)
** Current wind speed in m/s (hover to see current wind gust speed)